Visalia, CA

11:59 AM PDT on June 23, 2018 (GMT -0700)
Visalia Municipal

Weather History for KVIS - October, 2017

Change the Weather History Date:

Monday, October 9, 2017

  Actual Average Record
Temperature  
Mean Temperature 65 °F -  
Max Temperature 82 °F 81 °F 100 °F (1936)
Min Temperature 48 °F 53 °F 42 °F (1949)
Growing Degree Days 15 (Base 50)    
Moisture  
Dew Point 40 °F    
Average Humidity 47    
Maximum Humidity 83    
Minimum Humidity 19    
Precipitation  
Precipitation 0.00 in - - ()
Sea Level Pressure  
Sea Level Pressure 29.93 in    
Wind  
Wind Speed 2 mph (East)    
Max Wind Speed 8 mph    
Max Gust Speed -    
Visibility 10 miles    
Events      
Averages and records for this station are not official NWS values.
T = Trace of Precipitation, MM = Missing Value Source: NWS Daily Summary

Daily Weather History Graph

Daily Weather History Graph

Search for Another Location

Airport or City:

Astronomy

Oct. 09, 2017 Rise Set
Actual Time 6:59 AM PDT 6:29 PM PDT
Civil Twilight 6:33 AM PDT 6:54 PM PDT
Nautical Twilight 6:04 AM PDT 7:24 PM PDT
Astronomical Twilight 5:34 AM PDT 7:54 PM PDT
Moon 9:49 PM PDT (10/9) 11:09 AM PDT (10/9)
Length of Visible Light 12h 20m
Length of Day
11h 29m
Waning Gibbous, 80% of the Moon is Illuminated
Oct 9
Waning Gibbous
Oct 12
Last Quarter
Oct 19
New
Oct 27
First Quarter
Nov 3
Full

Hourly Weather History & Observations

Time (PDT) Temp. Dew Point Humidity Pressure Visibility Wind Dir Wind Speed Gust Speed Precip Events Conditions
12:56 AM 57.0 °F 39.0 °F 51% 29.83 in 10.0 mi Calm Calm - N/A   Clear
1:56 AM 52.0 °F 41.0 °F 66% 29.85 in 10.0 mi Calm Calm - N/A   Clear
2:56 AM 52.0 °F 41.0 °F 66% 29.85 in 10.0 mi Calm Calm - N/A   Clear
3:56 AM 50.0 °F 42.1 °F 74% 29.86 in 10.0 mi SSE 4.6 mph - N/A   Clear
4:56 AM 50.0 °F 43.0 °F 77% 29.87 in 10.0 mi ESE 3.5 mph - N/A   Clear
5:56 AM 50.0 °F 44.1 °F 80% 29.89 in 10.0 mi SE 3.5 mph - N/A   Clear
6:56 AM 48.0 °F 43.0 °F 83% 29.91 in 9.0 mi ESE 3.5 mph - N/A   Clear
7:56 AM 50.0 °F 44.1 °F 80% 29.94 in 9.0 mi Calm Calm - N/A   Clear
8:56 AM 59.0 °F 42.1 °F 53% 29.97 in 8.0 mi ESE 3.5 mph - N/A   Clear
9:56 AM 66.0 °F 41.0 °F 40% 29.98 in 10.0 mi SSE 3.5 mph - N/A   Clear
10:56 AM 69.1 °F 37.9 °F 32% 29.99 in 10.0 mi Calm Calm - N/A   Clear
11:56 AM 73.9 °F 37.9 °F 27% 29.98 in 10.0 mi Calm Calm - N/A   Clear
12:56 PM 75.9 °F 33.1 °F 21% 29.97 in 10.0 mi Variable 5.8 mph - N/A   Clear
1:56 PM 79.0 °F 34.0 °F 20% 29.95 in 10.0 mi South 3.5 mph - N/A   Clear
2:56 PM 81.0 °F 35.1 °F 19% 29.94 in 10.0 mi North 4.6 mph - N/A   Clear
3:56 PM 82.0 °F 36.0 °F 19% 29.94 in 10.0 mi Variable 6.9 mph - N/A   Clear
4:56 PM 80.1 °F 37.0 °F 21% 29.93 in 10.0 mi North 6.9 mph - N/A   Clear
5:56 PM 77.0 °F 39.0 °F 25% 29.94 in 10.0 mi North 6.9 mph - N/A   Clear
6:56 PM 72.0 °F 42.1 °F 34% 29.94 in 10.0 mi North 6.9 mph - N/A   Clear
7:56 PM 69.1 °F 42.1 °F 38% 29.95 in 10.0 mi North 5.8 mph - N/A   Clear
8:56 PM 64.9 °F 42.1 °F 43% 29.96 in 10.0 mi North 4.6 mph - N/A   Clear
9:56 PM 57.9 °F 39.9 °F 51% 29.97 in 10.0 mi Calm Calm - N/A   Clear
10:56 PM 57.0 °F 43.0 °F 59% 29.97 in 10.0 mi Calm Calm - N/A   Clear
11:56 PM 55.9 °F 42.1 °F 60% 29.97 in 10.0 mi SSE 8.1 mph - N/A   Clear